Location: ČR
(50.0000°N, 15.0000°E)
Time: 09:51:26
(UTC+02:00)

Envisat - Visible Passes

Search period start: 20 May 2026 00:00
Search period end: 30 May 2026 00:00
Orbit: 761 x 762 km, 98.4° (Epoch: 19 May)

Date Brightness Start Highest point End Pass type
(mag) Time Alt. Az. Time Alt. Az. Time Alt. Az.
20 May 4.8 02:44:03 10° NE 02:48:12 25° E 02:52:20 10° SSE visible
20 May 3.3 04:22:30 10° N 04:27:25 52° WNW 04:32:18 10° SW visible
21 May 5.5 02:07:57 10° ENE 02:09:53 12° E 02:11:49 10° ESE visible
21 May 3.1 03:44:34 10° NNE 03:49:40 79° ESE 03:54:44 10° SSW visible
22 May 4.1 03:06:58 10° NNE 03:11:42 38° E 03:16:24 10° SSE visible
23 May 5.1 02:29:56 10° NE 02:33:31 19° E 02:37:06 10° SE visible
23 May 3.1 04:07:54 10° N 04:12:57 68° WNW 04:17:58 10° SSW visible
24 May 3.4 03:30:05 10° NNE 03:35:07 60° E 03:40:07 10° S visible
25 May 4.6 02:52:39 10° NNE 02:57:04 29° E 03:01:27 10° SSE visible
26 May 5.4 02:16:03 10° NE 02:18:48 14° E 02:21:33 10° ESE visible
26 May 3.0 03:53:20 10° NNE 03:58:27 88° WNW 04:03:31 10° SSW visible
27 May 3.9 03:15:39 10° NNE 03:20:32 45° E 03:25:23 10° S visible
28 May 4.9 02:38:26 10° NE 02:42:24 23° E 02:46:21 10° SE visible
28 May 3.2 04:16:43 10° N 04:21:42 58° WNW 04:26:39 10° SSW visible
29 May 5.6 02:02:57 10° ENE 02:04:03 11° E 02:05:10 10° E visible
29 May 3.2 03:38:50 10° NNE 03:43:55 71° ESE 03:48:58 10° S visible
